Flag for U.S.A. Weather past 2 weeks in Roanoke, Virginia, U.S.A.

Now
37 °F

Broken clouds.


Feels Like: 32 °F
Forecast: 18 / 46 °F
Wind: 6 mph from Southeast

Location: Roanoke Regional Airport

Current Time: Jan 29, 2015 at 12:18:01 PM

Latest Report: Jan 29, 2015 at 11:54 AM


Visibility: 10 mi

Pressure: 30.22 "Hg

Humidity: 42%

Dew point: 16 °F

Location of RoanokeLocation

Historic Weather in Roanoke — Graph

°F

Roanoke temperature yesterday

Maximum temperature yesterday: 43 °F (at 2:54 PM)
Minimum temperature yesterday: 22 °F (at 2:54 AM)
Average temperature yesterday: 31 °F

Past Weeks' High & Low Weather Summary

 TemperatureHumidityPressure
High63 °F (Jan 20, 1:54 PM)96% (Jan 23, 9:54 PM)30.39 "Hg (Jan 23, 9:54 PM)
Low22 °F (Jan 27, 6:54 AM)21% (Jan 27, 2:54 PM)29.59 "Hg (Jan 24, 8:54 AM)
Average38 °F60%30.04 "Hg
* Reported Jan 14 10:54 AM — Jan 29 10:54 AM, Roanoke, Weather by CustomWeather, © 2014

Note: Actual official high and low records may vary slightly from our data, if they occured in-between our weather recording intervals... More about our weather records

Advertising

Roanoke weather history for previous 24 hours

 ConditionsComfort  
Time TempWeatherWind HumidityBarometerVisibility
10:54 AM
Jan 29
34 °FPartly sunny.6 mph44%30.27 "Hg10 mi
9:54 AM30 °FPartly sunny.No wind56%30.29 "Hg10 mi
8:54 AM27 °FScattered clouds.No wind69%30.31 "Hg10 mi
7:54 AM23 °FScattered clouds.No wind74%30.32 "Hg10 mi
6:54 AM24 °FPassing clouds.No wind71%30.32 "Hg10 mi
5:54 AM24 °FClear.No wind68%30.32 "Hg10 mi
4:54 AM25 °FClear.No wind66%30.32 "Hg10 mi
3:54 AM24 °FClear.No wind68%30.33 "Hg10 mi
2:54 AM24 °FClear.No wind68%30.33 "Hg10 mi
1:54 AM26 °FClear.No wind57%30.34 "Hg10 mi
12:54 AM24 °FClear.No wind65%30.34 "Hg10 mi
11:54 PM
Jan 28
25 °FClear.No wind60%30.35 "Hg10 mi
10:54 PM26 °FClear.3 mph57%30.35 "Hg10 mi
9:54 PM30 °FClear.5 mph49%30.34 "Hg10 mi
8:54 PM33 °FClear.No wind38%30.34 "Hg10 mi
7:54 PM34 °FClear.5 mph37%30.33 "Hg10 mi
6:54 PM36 °FClear.8 mph32%30.31 "Hg10 mi
5:54 PM40 °FClear.3 mph27%30.29 "Hg10 mi
4:54 PM42 °FSunny.5 mph25%30.27 "Hg10 mi
3:54 PM43 °FSunny.6 mph25%30.25 "Hg10 mi
2:54 PM43 °FSunny.9 mph22%30.24 "Hg10 mi
1:54 PM41 °FSunny.10 mph26%30.24 "Hg10 mi
12:54 PM39 °FSunny.10 mph26%30.25 "Hg10 mi
Weather by CustomWeather, © 2014

See weather overviewHow to use our weather pages